When you browse on this site, cookies collect data to enhance your experience and personalize the content and advertising you see.
Visit our Privacy Policy to learn more. By continuing to use the site, you agree to this use of cookies and data.
EN

Hourly Weather Santa Fe

Today, 13 July, Monday

Time Temperature Precipitation Wind Pressure Humidity
00:00 +8°C° 0 mm 2 mps 762 mmHg 52%
01:00 +8°C° 0 mm 2 mps 762 mmHg 52%
02:00 +9°C° 0 mm 1 mps 763 mmHg 51%
03:00 +7°C° 0 mm 2 mps 763 mmHg 53%
04:00 +7°C° 0 mm 2 mps 762 mmHg 55%
05:00 +7°C° 0 mm 2 mps 762 mmHg 58%
06:00 +7°C° 0 mm 2 mps 763 mmHg 59%
07:00 +7°C° 0 mm 2 mps 764 mmHg 60%
08:00 +7°C° 0 mm 2 mps 765 mmHg 61%
09:00 +9°C° 0 mm 3 mps 765 mmHg 54%
10:00 +11°C° 0 mm 3 mps 766 mmHg 48%
11:00 +13°C° 0 mm 3 mps 766 mmHg 41%
12:00 +13°C° 0 mm 3 mps 766 mmHg 40%
13:00 +14°C° 0 mm 3 mps 766 mmHg 38%
14:00 +14°C° 0 mm 3 mps 765 mmHg 37%
15:00 +13°C° 0 mm 3 mps 765 mmHg 40%
16:00 +13°C° 0 mm 2 mps 766 mmHg 44%
17:00 +12°C° 0 mm 2 mps 766 mmHg 48%
18:00 +10°C° 0 mm 2 mps 766 mmHg 49%
19:00 +10°C° 0 mm 1 mps 766 mmHg 50%
20:00 +10°C° 0 mm 1 mps 767 mmHg 51%
21:00 +9°C° 0 mm 1 mps 767 mmHg 53%
22:00 +8°C° 0 mm 1 mps 767 mmHg 55%
23:00 +8°C° 0 mm 1 mps 768 mmHg 57%

Tomorrow, 14 July, Tuesday

Time Temperature Precipitation Wind Pressure Humidity
00:00 +7°C° 0 mm 1 mps 768 mmHg 58%
01:00 +7°C° 0 mm 1 mps 768 mmHg 58%
02:00 +5°C° 0 mm 0 mps 768 mmHg 59%
03:00 +5°C° 0 mm 0 mps 768 mmHg 59%
04:00 +5°C° 0 mm 0 mps 768 mmHg 60%
05:00 +5°C° 0 mm 0 mps 768 mmHg 60%
06:00 +6°C° 0 mm 1 mps 768 mmHg 60%
07:00 +6°C° 0 mm 1 mps 768 mmHg 59%
08:00 +7°C° 0 mm 1 mps 768 mmHg 59%
09:00 +9°C° 0 mm 1 mps 768 mmHg 53%
10:00 +10°C° 0 mm 2 mps 768 mmHg 46%
11:00 +13°C° 0 mm 2 mps 768 mmHg 40%
12:00 +14°C° 0 mm 2 mps 767 mmHg 39%
13:00 +15°C° 0 mm 2 mps 767 mmHg 38%
14:00 +15°C° 0 mm 2 mps 766 mmHg 37%
15:00 +14°C° 0 mm 2 mps 765 mmHg 41%
16:00 +13°C° 0 mm 2 mps 765 mmHg 46%
17:00 +12°C° 0 mm 2 mps 764 mmHg 50%
18:00 +10°C° 0 mm 2 mps 765 mmHg 52%
19:00 +9°C° 0 mm 3 mps 765 mmHg 54%
20:00 +8°C° 0 mm 3 mps 765 mmHg 56%
21:00 +8°C° 0 mm 3 mps 765 mmHg 57%
22:00 +7°C° 0 mm 3 mps 765 mmHg 57%
23:00 +7°C° 0 mm 3 mps 765 mmHg 58%

Day after tomorrow, 15 July, Wednesday

Time Temperature Precipitation Wind Pressure Humidity
00:00 +5°C° 0 mm 3 mps 765 mmHg 59%
01:00 +5°C° 0 mm 3 mps 765 mmHg 60%
02:00 +5°C° 0 mm 3 mps 765 mmHg 61%
03:00 +4°C° 0 mm 3 mps 764 mmHg 63%
04:00 +4°C° 0 mm 3 mps 764 mmHg 65%
05:00 +3°C° 0 mm 3 mps 764 mmHg 67%
06:00 +4°C° 0 mm 3 mps 764 mmHg 66%
07:00 +4°C° 0 mm 3 mps 764 mmHg 65%
08:00 +5°C° 0 mm 2 mps 765 mmHg 65%
09:00 +7°C° 0 mm 3 mps 765 mmHg 58%
10:00 +9°C° 0 mm 3 mps 765 mmHg 51%
11:00 +11°C° 0 mm 3 mps 765 mmHg 44%
12:00 +12°C° 0 mm 3 mps 764 mmHg 41%
13:00 +13°C° 0 mm 3 mps 763 mmHg 38%
14:00 +14°C° 0 mm 3 mps 762 mmHg 34%
15:00 +13°C° 0 mm 3 mps 762 mmHg 40%
16:00 +13°C° 0 mm 2 mps 762 mmHg 45%
17:00 +12°C° 0 mm 2 mps 762 mmHg 50%
18:00 +10°C° 0 mm 2 mps 762 mmHg 55%
19:00 +9°C° 0 mm 3 mps 762 mmHg 60%
20:00 +8°C° 0 mm 3 mps 762 mmHg 65%
21:00 +8°C° 0 mm 2 mps 762 mmHg 67%
22:00 +8°C° 0 mm 2 mps 762 mmHg 69%
23:00 +7°C° 0 mm 2 mps 762 mmHg 71%

16 July, Thursday

Time Temperature Precipitation Wind Pressure Humidity
00:00 +8°C° 0 mm 1 mps 762 mmHg 73%
01:00 +8°C° 0 mm 1 mps 762 mmHg 75%
02:00 +8°C° 0 mm 1 mps 761 mmHg 78%
03:00 +7°C° 0 mm 1 mps 761 mmHg 80%
04:00 +7°C° 0 mm 1 mps 761 mmHg 82%
05:00 +7°C° 0 mm 1 mps 761 mmHg 84%
06:00 +7°C° 0 mm 1 mps 761 mmHg 84%
07:00 +8°C° 0 mm 1 mps 761 mmHg 83%
08:00 +8°C° 0 mm 1 mps 762 mmHg 82%
09:00 +10°C° 0 mm 1 mps 762 mmHg 73%
10:00 +13°C° 0 mm 1 mps 762 mmHg 64%
11:00 +15°C° 0 mm 1 mps 762 mmHg 55%
12:00 +16°C° 0 mm 1 mps 761 mmHg 51%
13:00 +18°C° 0 mm 1 mps 760 mmHg 47%
14:00 +19°C° 0 mm 1 mps 760 mmHg 42%
15:00 +18°C° 0 mm 1 mps 760 mmHg 47%
16:00 +16°C° 0 mm 1 mps 759 mmHg 51%
17:00 +15°C° 0 mm 1 mps 759 mmHg 56%
18:00 +14°C° 0 mm 1 mps 760 mmHg 60%
19:00 +13°C° 0 mm 1 mps 760 mmHg 65%
20:00 +12°C° 0 mm 2 mps 760 mmHg 69%
21:00 +12°C° 0 mm 2 mps 760 mmHg 73%
22:00 +12°C° 0 mm 2 mps 760 mmHg 77%
23:00 +10°C° 0 mm 2 mps 760 mmHg 81%

17 July, Friday

Time Temperature Precipitation Wind Pressure Humidity
00:00 +10°C° 0 mm 2 mps 760 mmHg 84%
01:00 +10°C° 0 mm 2 mps 760 mmHg 88%
02:00 +10°C° 0 mm 2 mps 759 mmHg 91%
03:00 +10°C° 0 mm 2 mps 759 mmHg 93%
04:00 +10°C° 0 mm 2 mps 759 mmHg 94%
05:00 +10°C° 0 mm 2 mps 758 mmHg 96%
06:00 +10°C° 0 mm 3 mps 758 mmHg 96%
07:00 +11°C° 0 mm 3 mps 758 mmHg 96%
08:00 +11°C° 0 mm 3 mps 758 mmHg 96%
09:00 +12°C° 0 mm 3 mps 758 mmHg 92%
10:00 +13°C° 0 mm 3 mps 757 mmHg 87%
11:00 +15°C° 0 mm 4 mps 757 mmHg 82%
12:00 +15°C° 0 mm 4 mps 756 mmHg 81%
13:00 +17°C° 0 mm 4 mps 755 mmHg 80%
14:00 +18°C° 0 mm 4 mps 754 mmHg 79%
15:00 +18°C° 0 mm 3 mps 754 mmHg 82%
16:00 +18°C° 0 mm 3 mps 753 mmHg 84%
17:00 +18°C° 0 mm 2 mps 753 mmHg 87%
18:00 +18°C° 0 mm 3 mps 753 mmHg 90%
19:00 +17°C° 0 mm 3 mps 753 mmHg 93%
20:00 +17°C° 0 mm 3 mps 753 mmHg 96%
21:00 +17°C° 0 mm 3 mps 753 mmHg 96%
22:00 +17°C° 0 mm 2 mps 753 mmHg 97%
23:00 +18°C° 0 mm 1 mps 753 mmHg 97%

18 July, Saturday

Time Temperature Precipitation Wind Pressure Humidity
00:00 +18°C° 0 mm 1 mps 752 mmHg 97%
01:00 +18°C° 0 mm 1 mps 752 mmHg 97%
02:00 +18°C° 0 mm 1 mps 752 mmHg 98%
03:00 +17°C° 0 mm 2 mps 752 mmHg 97%
04:00 +17°C° 0 mm 2 mps 752 mmHg 97%
05:00 +17°C° 0 mm 2 mps 752 mmHg 97%
06:00 +17°C° 0 mm 2 mps 752 mmHg 97%
07:00 +18°C° 0 mm 2 mps 753 mmHg 96%
08:00 +18°C° 0 mm 3 mps 753 mmHg 96%
09:00 +20°C° 0 mm 2 mps 753 mmHg 88%
10:00 +23°C° 0 mm 2 mps 753 mmHg 80%
11:00 +24°C° 0 mm 2 mps 753 mmHg 72%
12:00 +25°C° 0 mm 2 mps 753 mmHg 68%
13:00 +26°C° 0 mm 1 mps 752 mmHg 63%
14:00 +27°C° 0 mm 1 mps 752 mmHg 59%
15:00 +26°C° 0 mm 1 mps 752 mmHg 62%
16:00 +25°C° 0 mm 1 mps 752 mmHg 66%
17:00 +24°C° 0 mm 1 mps 752 mmHg 69%
18:00 +23°C° 0 mm 2 mps 753 mmHg 74%
19:00 +21°C° 0 mm 2 mps 753 mmHg 79%
20:00 +20°C° 0 mm 3 mps 753 mmHg 84%
21:00 +20°C° 0 mm 3 mps 753 mmHg 87%
22:00 +19°C° 0 mm 3 mps 754 mmHg 90%
23:00 +19°C° 0 mm 2 mps 754 mmHg 92%
Show more